Location: Newark
(36.6282°N, 40.8455°E)
Time: 04:01:59
(UTC+00:00)

Tiangong 2 - Visible Passes

Search period start: 19 July 2019 00:00
Search period end: 29 July 2019 00:00
Orbit: 185 x 377 km, 42.8° (Epoch: 18 July)

Date Brightness Start Highest point End Pass type
(mag) Time Alt. Az. Time Alt. Az. Time Alt. Az.
19 Jul 2.8 17:05:16 10° NW 17:08:02 28° N 17:10:48 10° ENE visible
19 Jul 1.8 18:39:41 10° WNW 18:42:08 50° WNW 18:42:08 50° WNW visible
20 Jul 2.3 17:06:54 10° NW 17:09:50 35° NNE 17:12:45 10° E visible
20 Jul 2.4 18:41:25 10° WNW 18:43:27 33° W 18:43:27 33° W visible
21 Jul 1.6 17:08:29 10° WNW 17:11:33 51° NNE 17:14:36 10° E visible
21 Jul 3.2 18:43:17 10° W 18:44:45 20° WSW 18:44:45 20° WSW visible
22 Jul 1.0 17:10:01 10° WNW 17:13:09 84° NNE 17:15:58 12° ESE visible
22 Jul 3.8 18:45:32 10° WSW 18:46:03 12° WSW 18:46:03 12° WSW visible
23 Jul 1.4 17:11:35 10° WNW 17:14:38 54° SSW 17:17:17 13° SE visible
24 Jul 2.5 17:13:15 10° W 17:15:59 29° SW 17:18:37 11° SSE visible
25 Jul 3.4 17:15:16 10° WSW 17:17:15 16° SW 17:19:15 10° S visible
